DW8626 Madrid ES current weather conditions

sailwx.info

Wind from 089 at 8 knots gusting 18

Air temperature 8.3° C
Dewpoint 6.6° C

Last reported at 2014-Nov-28 07:45 UTC.
Time now 2014-Nov-28 08:37 UTC

Location: N 40°29' W 003°43'.
View on Google Maps.

See reports from other nearby stations

  
Tides and Currents Weather Stations Pressure Air Temp Water Temp Dewpoint Dewpoint Depression Visibility Wind Speed Wind Dir Waves Ship Positions
date/time (UTC)wind fromknots sea level pressurealtimeterstation pressurevisibilityair tempwater tempwave heightnotes
2014-Nov-28 07:45 089 8 gusting 18 8.3
2014-Nov-28 06:59 137 8 gusting 12 8.9
2014-Nov-28 06:44 166 4 gusting 10 8.3
2014-Nov-28 05:44 081 4 gusting 9 8.3
2014-Nov-28 05:29 104 13 gusting 19 8.3
2014-Nov-28 05:14 123 10 gusting 16 8.3
2014-Nov-28 05:01 133 2 gusting 11 8.3
2014-Nov-28 04:46 139 6 gusting 8 8.3
2014-Nov-28 04:29 072 5 gusting 16 8.9
2014-Nov-28 04:14 114 7 gusting 16 8.9
2014-Nov-28 03:59 159 7 gusting 17 8.9
2014-Nov-28 03:44 128 6 gusting 14 9.4
2014-Nov-28 03:29 158 6 gusting 21 9.4
2014-Nov-28 03:14 143 8 gusting 15 9.4
2014-Nov-28 02:59 142 7 gusting 15 9.4
2014-Nov-28 02:44 172 8 gusting 19 8.9
2014-Nov-28 01:59 138 11 gusting 19 8.9
2014-Nov-28 01:44 159 6 gusting 16 9.4
2014-Nov-28 01:29 210 8 gusting 13 9.4
2014-Nov-28 01:14 134 6 gusting 15 9.4
2014-Nov-28 00:59 183 12 gusting 14 9.4
2014-Nov-28 00:43 169 6 gusting 13 9.4
2014-Nov-28 00:29 101 14 gusting 19 9.4
2014-Nov-28 00:14 178 6 gusting 19 9.4
2014-Nov-28 00:01 132 6 gusting 13 9.4
2014-Nov-27 23:45 162 14 gusting 14 9.4
2014-Nov-27 23:29 177 8 gusting 13 9.4
2014-Nov-27 23:14 154 9 gusting 13 9.4
2014-Nov-27 22:59 174 10 gusting 16 10.0
2014-Nov-27 22:44 168 3 gusting 14 10.0
2014-Nov-27 22:29 124 6 gusting 14 10.0
2014-Nov-27 22:14 148 8 gusting 18 10.0
2014-Nov-27 21:59 152 8 gusting 13 10.0
2014-Nov-27 21:44 152 8 gusting 17 10.6
2014-Nov-27 21:16 115 8 gusting 19 10.6
2014-Nov-27 20:59 187 8 gusting 14 10.6
2014-Nov-27 20:44 169 7 gusting 13 10.6
2014-Nov-27 20:29 165 7 gusting 16 10.6
2014-Nov-27 20:14 152 7 gusting 13 10.6
2014-Nov-27 19:59 184 6 gusting 12 10.6
2014-Nov-27 19:44 112 3 gusting 11 10.6
2014-Nov-27 19:29 129 6 gusting 13 10.6
2014-Nov-27 19:14 153 5 gusting 10 10.6
2014-Nov-27 19:01 121 9 gusting 9 10.6
2014-Nov-27 18:44 146 3 gusting 6 10.6
2014-Nov-27 18:29 135 3 gusting 10 10.6
2014-Nov-27 18:14 173 9 gusting 13 10.6
2014-Nov-27 17:59 158 8 gusting 13 11.1
2014-Nov-27 17:43 162 11 gusting 16 11.1
2014-Nov-27 17:29 142 4 gusting 13 11.7
2014-Nov-27 17:14 205 7 gusting 16 11.7
2014-Nov-27 17:00 142 9 gusting 13 11.1
2014-Nov-27 16:15 130 5 gusting 6 11.7
2014-Nov-27 16:00 120 5 gusting 14 11.7
2014-Nov-27 15:45 173 7 gusting 9 11.7
2014-Nov-27 15:30 173 6 gusting 12 11.7
2014-Nov-27 15:15 121 2 gusting 13 11.7
2014-Nov-27 14:30 138 6 gusting 13 11.7
2014-Nov-27 13:45 109 2 gusting 9 10.6
2014-Nov-27 12:15 096 2 gusting 12 10.0
2014-Nov-27 11:45 120 4 gusting 9 10.0
2014-Nov-27 11:01 114 2 gusting 11 9.4
2014-Nov-27 10:44 152 3 gusting 8 9.4
2014-Nov-27 10:14 131 4 gusting 9 9.4
2014-Nov-27 10:01 115 2 gusting 8 10.0
2014-Nov-27 09:44 107 0 gusting 8 9.4
2014-Nov-27 09:30 152 3 gusting 7 9.4
2014-Nov-27 08:14 044 8.9
2014-Nov-27 07:59 075 2 gusting 4 8.9
2014-Nov-27 07:44 325 8.9
2014-Nov-27 07:28 091 3 gusting 6 8.3
2014-Nov-27 07:13 005 4 gusting 6 8.3
2014-Nov-27 06:58 023 2 gusting 6 8.3
2014-Nov-27 06:43 021 2 gusting 6 8.3
2014-Nov-27 06:29 032 8.3
2014-Nov-27 06:14 084 1 gusting 5 8.3
2014-Nov-27 05:58 005 2 gusting 3 8.3
2014-Nov-27 05:44 358 8.3
2014-Nov-27 05:28 024 3 gusting 6 8.3
2014-Nov-27 05:14 063 8.3
2014-Nov-27 04:59 068 2 gusting 6 8.3
2014-Nov-27 04:44 142 8.3
2014-Nov-27 04:29 026 2 gusting 4 7.8
2014-Nov-27 04:14 023 2 gusting 4 7.8
2014-Nov-27 04:00 046 7.8
2014-Nov-27 03:44 042 1 gusting 6 7.8
2014-Nov-27 03:28 065 7.8
2014-Nov-27 03:13 014 7.8
2014-Nov-27 02:59 065 7.8
2014-Nov-27 02:43 019 0 gusting 3 7.8
2014-Nov-27 02:28 039 0 gusting 6 7.8
2014-Nov-27 02:13 036 2 gusting 7 7.8
2014-Nov-27 01:58 031 2 gusting 6 7.8
2014-Nov-27 01:43 043 4 gusting 7 8.3
2014-Nov-27 01:30 044 2 gusting 4 8.3
2014-Nov-27 01:15 036 1 gusting 3 8.9
2014-Nov-27 00:58 100 3 gusting 5 8.9
2014-Nov-27 00:43 051 8.9
2014-Nov-27 00:28 074 0 gusting 3 8.9
2014-Nov-27 00:13 031 2 gusting 5 8.9
2014-Nov-26 23:58 031 3 gusting 5 9.4
2014-Nov-26 23:43 039 2 gusting 4 9.4
2014-Nov-26 23:29 026 3 gusting 4 9.4
2014-Nov-26 23:00 006 0 gusting 0 9.4
2014-Nov-26 22:44 014 10.0
2014-Nov-26 22:28 037 9.4
2014-Nov-26 22:14 027 1 gusting 2 9.4
2014-Nov-26 21:59 354 8.9
2014-Nov-26 21:43 306 10.0
2014-Nov-26 21:28 307 9.4
2014-Nov-26 21:13 347 9.4
2014-Nov-26 20:58 347 10.0
2014-Nov-26 20:44 300 9.4
2014-Nov-26 20:29 284 10.0
2014-Nov-26 20:14 215 9.4
2014-Nov-26 19:58 243 9.4
2014-Nov-26 19:43 162 10.0
2014-Nov-26 19:29 225 10.0
2014-Nov-26 18:59 217 0 gusting 1 10.6
2014-Nov-26 18:43 159 10.6
2014-Nov-26 18:29 193 0 gusting 2 10.6
2014-Nov-26 18:13 162 10.6
2014-Nov-26 18:00 172 10.6
2014-Nov-26 17:44 159 10.6
2014-Nov-26 17:29 195 10.6
2014-Nov-26 17:13 212 11.1
2014-Nov-26 16:58 239 0 gusting 3 11.1
2014-Nov-26 16:43 146 1 gusting 7 11.7
2014-Nov-26 16:29 113 1 gusting 6 11.7
2014-Nov-26 16:13 152 3 gusting 9 12.2
2014-Nov-26 15:58 266 0 gusting 7 11.7
2014-Nov-26 15:43 249 5 gusting 7 12.2
2014-Nov-26 15:30 208 4 gusting 5 12.2
2014-Nov-26 14:58 224 6 gusting 11 12.2
2014-Nov-26 14:44 212 2 gusting 8 12.2
2014-Nov-26 14:29 191 5 gusting 7 12.8
2014-Nov-26 14:14 211 3 gusting 5 12.2
2014-Nov-26 13:58 201 0 gusting 6 12.2
2014-Nov-26 13:44 123 2 gusting 7 11.7
2014-Nov-26 13:28 203 1 gusting 11 11.7
2014-Nov-26 13:13 208 2 gusting 10 11.1
2014-Nov-26 13:00 261 3 gusting 7 11.1
2014-Nov-26 12:44 162 2 gusting 6 11.7
2014-Nov-26 12:29 240 4 gusting 7 11.7
2014-Nov-26 12:13 152 5 gusting 8 11.1
2014-Nov-26 11:58 187 5 gusting 10 11.1
2014-Nov-26 11:43 215 2 gusting 10 11.7
2014-Nov-26 11:29 210 2 gusting 6 11.7
2014-Nov-26 11:13 284 2 gusting 9 11.1
2014-Nov-26 10:58 224 2 gusting 7 11.7
2014-Nov-26 10:43 186 0 gusting 6 11.7
2014-Nov-26 10:29 233 2 gusting 7 11.1
2014-Nov-26 10:14 236 7 gusting 9 11.1
2014-Nov-26 09:58 210 6 gusting 9 11.1
2014-Nov-26 09:43 186 5 gusting 7 11.1
2014-Nov-26 09:29 194 3 gusting 6 10.6
2014-Nov-26 09:13 224 2 gusting 7 10.6
2014-Nov-26 08:59 271 2 gusting 6 10.6
2014-Nov-26 08:44 172 0 gusting 5 10.6
2014-Nov-26 08:29 181 2 gusting 7 10.6
2014-Nov-26 08:13 281 1 gusting 5 10.0
2014-Nov-26 08:00 255 0 gusting 5 10.0